TimeMDT,TemperatureF,Dew PointF,Humidity,Sea Level PressureIn,VisibilityMPH,Wind Direction,Wind SpeedMPH,Gust SpeedMPH,PrecipitationIn,Events,Conditions,WindDirDegrees,DateUTC
12:15 AM,35.4,18.3,50,30.07,10.0,Calm,Calm,-,N/A,,Clear,0,2013-04-01 06:15:00
12:35 AM,34.5,19.6,54,30.06,10.0,Calm,Calm,-,N/A,,Clear,0,2013-04-01 06:35:00
1:15 AM,31.1,20.8,66,30.06,10.0,Calm,Calm,-,N/A,,Clear,0,2013-04-01 07:15:00
1:35 AM,32.0,20.5,63,30.06,10.0,Calm,Calm,-,N/A,,Clear,0,2013-04-01 07:35:00
2:15 AM,31.8,19.0,59,30.05,10.0,Calm,Calm,-,N/A,,Clear,0,2013-04-01 08:15:00
2:35 AM,31.5,19.0,60,30.05,10.0,Calm,Calm,-,N/A,,Clear,0,2013-04-01 08:35:00
2:55 AM,31.3,18.1,58,30.05,10.0,Calm,Calm,-,N/A,,Clear,0,2013-04-01 08:55:00
3:15 AM,31.1,18.3,59,30.04,10.0,Calm,Calm,-,N/A,,Clear,0,2013-04-01 09:15:00
3:35 AM,30.4,19.0,63,30.04,10.0,Calm,Calm,-,N/A,,Clear,0,2013-04-01 09:35:00
3:55 AM,27.9,18.3,67,30.04,10.0,Calm,Calm,-,N/A,,Clear,0,2013-04-01 09:55:00
4:15 AM,28.4,18.5,66,30.04,10.0,Calm,Calm,-,N/A,,Clear,0,2013-04-01 10:15:00
4:35 AM,29.3,19.2,66,30.04,10.0,Calm,Calm,-,N/A,,Clear,0,2013-04-01 10:35:00
4:55 AM,28.2,18.7,67,30.04,10.0,Calm,Calm,-,N/A,,Clear,0,2013-04-01 10:55:00
5:15 AM,28.9,18.9,66,30.04,10.0,Calm,Calm,-,N/A,,Clear,0,2013-04-01 11:15:00
5:35 AM,28.0,18.1,66,30.05,10.0,Calm,Calm,-,N/A,,Clear,0,2013-04-01 11:35:00
6:15 AM,25.9,18.5,74,30.06,10.0,East,4.6,-,N/A,,Scattered Clouds,100,2013-04-01 12:15:00
6:35 AM,27.9,18.0,66,30.05,10.0,ESE,5.8,-,N/A,,Scattered Clouds,110,2013-04-01 12:35:00
6:55 AM,24.8,17.4,74,30.05,10.0,Calm,Calm,-,N/A,,Clear,0,2013-04-01 12:55:00
7:15 AM,25.9,17.6,71,30.06,10.0,Calm,Calm,-,N/A,,Clear,0,2013-04-01 13:15:00
7:35 AM,28.0,17.6,65,30.07,10.0,Calm,Calm,-,N/A,,Scattered Clouds,0,2013-04-01 13:35:00
7:55 AM,27.1,17.6,67,30.06,10.0,Calm,Calm,-,N/A,,Mostly Cloudy,0,2013-04-01 13:55:00
8:15 AM,28.6,18.3,65,30.06,10.0,Calm,Calm,-,N/A,,Overcast,0,2013-04-01 14:15:00
8:35 AM,28.4,18.9,67,30.07,10.0,Calm,Calm,-,N/A,,Mostly Cloudy,0,2013-04-01 14:35:00
8:55 AM,30.2,18.9,63,30.06,10.0,Calm,Calm,-,N/A,,Scattered Clouds,0,2013-04-01 14:55:00
9:15 AM,33.8,18.7,54,30.06,10.0,Calm,Calm,-,N/A,,Clear,0,2013-04-01 15:15:00
9:35 AM,35.6,19.6,52,30.05,10.0,Calm,Calm,-,N/A,,Clear,0,2013-04-01 15:35:00
10:15 AM,38.3,19.4,47,30.05,10.0,Calm,Calm,-,N/A,,Scattered Clouds,0,2013-04-01 16:15:00
10:35 AM,39.6,17.2,41,30.05,10.0,Calm,Calm,-,N/A,,Scattered Clouds,0,2013-04-01 16:35:00
10:55 AM,40.5,19.9,44,30.06,10.0,Calm,Calm,-,N/A,,Mostly Cloudy,0,2013-04-01 16:55:00
11:15 AM,39.6,21.2,48,30.05,10.0,Calm,Calm,-,N/A,,Overcast,0,2013-04-01 17:15:00
11:35 AM,45.3,19.0,35,30.04,10.0,Calm,Calm,-,N/A,,Mostly Cloudy,0,2013-04-01 17:35:00
12:15 PM,51.1,16.0,25,30.02,10.0,Calm,Calm,-,N/A,,Mostly Cloudy,0,2013-04-01 18:15:00
12:35 PM,52.7,19.2,27,30.01,10.0,ENE,5.8,-,N/A,,Scattered Clouds,70,2013-04-01 18:35:00
12:55 PM,53.6,17.1,24,30.00,10.0,Calm,Calm,-,N/A,,Clear,0,2013-04-01 18:55:00
1:15 PM,52.3,19.8,28,29.99,10.0,Calm,Calm,-,N/A,,Scattered Clouds,0,2013-04-01 19:15:00
1:35 PM,52.9,21.2,29,29.99,10.0,Calm,Calm,-,N/A,,Clear,0,2013-04-01 19:35:00
2:15 PM,50.2,20.3,31,29.98,10.0,SSW,6.9,-,N/A,,Clear,200,2013-04-01 20:15:00
2:35 PM,50.7,20.8,31,29.97,10.0,East,16.1,-,N/A,,Scattered Clouds,100,2013-04-01 20:35:00
2:55 PM,50.9,24.1,35,29.97,10.0,SE,12.7,17.3,N/A,,Overcast,130,2013-04-01 20:55:00
3:15 PM,50.4,25.5,38,29.96,10.0,ESE,4.6,-,N/A,,Overcast,120,2013-04-01 21:15:00
3:35 PM,50.0,25.7,39,29.95,10.0,ENE,6.9,-,N/A,,Mostly Cloudy,70,2013-04-01 21:35:00
3:55 PM,49.6,26.6,41,29.96,10.0,West,13.8,17.3,N/A,,Mostly Cloudy,260,2013-04-01 21:55:00
4:15 PM,43.5,30.0,59,29.98,10.0,West,12.7,20.7,N/A,,Mostly Cloudy,270,2013-04-01 22:15:00
4:35 PM,44.1,30.0,58,29.99,10.0,West,5.8,-,N/A,,Mostly Cloudy,270,2013-04-01 22:35:00
5:15 PM,43.7,29.7,58,29.99,10.0,Calm,Calm,-,N/A,,Overcast,0,2013-04-01 23:15:00
5:35 PM,42.6,29.8,61,30.00,10.0,South,6.9,-,N/A,,Overcast,170,2013-04-01 23:35:00
5:55 PM,41.2,31.6,69,30.01,10.0,SSE,4.6,-,N/A,,Overcast,150,2013-04-01 23:55:00
6:15 PM,38.7,33.3,81,30.00,10.0,NE,9.2,-,N/A,,Overcast,50,2013-04-02 00:15:00
6:35 PM,39.2,32.9,78,29.94,10.0,NE,17.3,23.0,N/A,,Overcast,40,2013-04-02 00:35:00
6:55 PM,40.6,32.0,71,29.94,10.0,SW,4.6,18.4,N/A,,Scattered Clouds,220,2013-04-02 00:55:00
7:15 PM,38.5,32.0,78,29.97,10.0,South,12.7,-,N/A,,Scattered Clouds,190,2013-04-02 01:15:00
7:35 PM,37.8,32.4,81,30.02,10.0,SSW,9.2,19.6,N/A,,Overcast,210,2013-04-02 01:35:00
7:55 PM,36.7,34.7,93,30.03,5.0,Calm,Calm,-,N/A,,Overcast,0,2013-04-02 01:55:00
8:15 PM,37.0,35.2,93,30.02,4.0,NNE,4.6,-,N/A,,Overcast,20,2013-04-02 02:15:00
8:35 PM,36.5,34.0,91,30.04,10.0,Calm,Calm,-,N/A,,Overcast,0,2013-04-02 02:35:00
8:55 PM,35.6,34.3,95,30.03,5.0,North,9.2,-,N/A,,Overcast,360,2013-04-02 02:55:00
9:15 PM,35.4,33.8,94,30.02,10.0,ESE,6.9,-,N/A,,Overcast,110,2013-04-02 03:15:00
9:35 PM,34.9,33.1,93,30.03,10.0,Calm,Calm,-,N/A,,Overcast,0,2013-04-02 03:35:00
9:55 PM,34.7,33.8,97,30.04,10.0,Calm,Calm,-,N/A,,Overcast,0,2013-04-02 03:55:00
10:15 PM,34.7,33.8,97,30.04,10.0,Calm,Calm,-,N/A,,Overcast,0,2013-04-02 04:15:00
10:35 PM,34.3,33.3,96,30.04,7.0,Calm,Calm,-,N/A,,Overcast,0,2013-04-02 04:35:00
10:55 PM,34.0,33.3,97,30.04,10.0,Calm,Calm,-,N/A,,Mostly Cloudy,0,2013-04-02 04:55:00
11:15 PM,34.0,33.4,98,30.03,10.0,Calm,Calm,-,N/A,,Scattered Clouds,0,2013-04-02 05:15:00
11:35 PM,33.3,32.9,99,30.03,1.5,Calm,Calm,-,N/A,,Overcast,0,2013-04-02 05:35:00
11:55 PM,33.4,33.1,99,30.01,10.0,SSE,3.5,-,N/A,,Scattered Clouds,160,2013-04-02 05:55:00